GW0821 Weather Reports


time (UTC)temp
F
wind
direction
speed
knots
gust
knots
rain 1hr
in
rain 24hr
in
rain mn
in
humidity
%
barometer
mb
20260510194555 62 329 0.0 6.1 0.00 0.00 0.00 66 1010.0
20260510193059 62 54 0.9 4.3 0.00 0.00 0.00 65 1009.9
20260510191554 62 101 0.9 4.3 0.00 0.00 0.00 65 1009.7
20260510190046 63 0 0.9 3.5 0.00 0.00 0.00 65 1009.7
20260510184551 63 282 1.7 7.8 0.00 0.02 0.00 65 1009.5
20260510183053 64 139 0.9 7.8 0.00 0.02 0.00 63 1009.3
20260510181544 66 329 0.9 6.1 0.00 0.02 0.00 55 1009.1
20260510180049 67 214 0.0 6.1 0.00 0.02 0.00 55 1008.7
20260510174548 68 167 1.7 7.0 0.00 0.18 0.00 54 1008.5
20260510173054 68 278 3.5 10.4 0.00 0.18 0.00 55 1008.4
20260510171552 69 255 3.5 7.0 0.00 0.18 0.00 53 1008.2
20260510170040 70 213 1.7 7.8 0.00 0.18 0.00 53 1008.1
20260510164548 71 241 3.5 8.7 0.00 0.49 0.00 52 1007.9
20260510163039 71 279 3.5 7.0 0.00 0.49 0.00 52 1007.8
20260510161548 71 246 2.6 12.2 0.00 0.49 0.00 52 1007.9
20260510160049 72 304 3.5 10.4 0.00 0.49 0.00 50 1007.8
20260510154545 74 199 2.6 10.4 0.00 0.61 0.00 47 1007.8
20260510153043 74 132 0.9 12.2 0.00 0.61 0.00 39 1007.8
20260510151546 74 238 0.9 12.2 0.00 0.61 0.00 40 1007.9
20260510150046 73 184 1.7 10.4 0.00 0.61 0.00 42 1008.0
20260510144550 74 267 3.5 8.7 0.00 0.66 0.00 42 1008.3
20260510143045 72 32 3.5 9.6 0.00 0.66 0.00 40 1008.6
20260510141549 72 245 0.9 4.3 0.00 0.66 0.00 43 1008.7
20260510140041 71 300 0.9 12.2 0.00 0.66 0.00 47 1008.9
20260510134555 72 298 2.6 9.6 0.00 0.66 0.00 46 1009.1
20260510133049 72 220 3.5 11.3 0.00 0.66 0.00 47 1009.1
20260510131554 72 307 5.2 13.0 0.00 0.66 0.00 43 1009.4
20260510130045 71 295 3.5 11.3 0.00 0.66 0.00 47 1009.5
20260510124543 71 63 3.5 11.3 0.00 0.66 0.00 46 1009.5
20260510123056 71 233 1.7 7.8 0.00 0.66 0.00 51 1009.5
20260510121540 70 344 5.2 8.7 0.00 0.66 0.00 50 1009.9
20260510120039 70 194 1.7 11.3 0.00 0.66 0.00 52 1010.0
20260510114543 69 267 2.6 10.4 0.00 0.66 0.00 53 1010.2
20260510113045 70 46 4.3 11.3 0.00 0.66 0.00 54 1010.2
20260510111543 68 270 3.5 9.6 0.00 0.66 0.00 57 1010.4
20260510110049 69 301 1.7 6.1 0.00 0.66 0.00 60 1010.3
20260510104541 67 7 2.6 7.0 0.00 0.66 0.00 60 1010.4
20260510103046 67 32 1.7 11.3 0.00 0.66 0.00 60 1010.5
20260510101551 66 295 1.7 9.6 0.00 0.66 0.00 63 1010.6
20260510100043 66 290 0.9 6.1 0.00 0.66 0.00 63 1010.9
20260510094546 66 344 3.5 8.7 0.00 0.66 0.00 63 1010.8
20260510093047 65 288 0.0 9.6 0.00 0.66 0.00 67 1010.8
20260510091549 65 9 2.6 7.0 0.00 0.66 0.00 67 1010.8
20260510090039 64 101 2.6 7.0 0.00 0.66 0.00 69 1010.8
20260510084538 63 5 1.7 7.8 0.00 0.66 0.00 71 1010.8
20260510083043 62 0 0.0 9.6 0.00 0.66 0.00 76 1010.8
20260510081548 62 124 0.9 3.5 0.00 0.66 0.00 75 1010.8
20260510080042 61 0 0.0 1.7 0.00 0.66 0.00 79 1010.8
20260510074540 60 0 0.0 0.0 0.00 0.66 0.00 86 1010.8
20260510073104 59 0 0.0 0.0 0.00 0.66 0.00 92 1010.8
20260510071553 56 0 0.0 0.0 0.00 0.66 0.00 96 1010.7
20260510070045 53 0 0.0 0.0 0.00 0.66 0.00 96 1010.9
20260510064556 52 0 0.0 0.0 0.00 0.66 0.00 97 1010.8
20260510063046 51 0 0.0 0.0 0.00 0.66 0.00 98 1010.6
20260510061540 50 0 0.0 0.0 0.00 0.66 0.00 98 1010.5
20260510060039 47 0 0.0 0.0 0.00 0.66 0.00 98 1010.5
20260510054544 47 0 0.0 0.0 0.00 0.66 0.00 98 1010.7
20260510053042 47 0 0.0 0.0 0.00 0.66 0.00 98 1010.6
20260510051554 46 0 0.0 0.0 0.00 0.66 0.00 98 1010.7
20260510050043 47 0 0.0 0.0 0.00 0.66 0.00 97 1010.6
20260510044548 47 0 0.0 0.0 0.00 0.66 0.00 97 1010.8
20260510043053 47 0 0.0 0.0 0.00 0.66 0.00 97 1010.8
20260510041548 47 0 0.0 0.0 0.00 0.66 0.00 97 1010.6
20260510040050 47 0 0.0 0.0 0.00 0.66 0.00 97 1010.4
20260510034543 48 0 0.0 0.0 0.00 0.66 0.00 97 1010.6
20260510033045 48 0 0.0 0.0 0.00 0.66 0.00 97 1010.7
20260510031553 48 0 0.0 0.0 0.00 0.66 0.00 97 1010.8
20260510030044 49 0 0.0 0.0 0.00 0.66 0.00 97 1011.0
20260510024548 49 0 0.0 0.0 0.00 0.66 0.00 97 1011.2
20260510023042 49 0 0.0 0.0 0.00 0.65 0.00 97 1011.2
20260510021543 49 0 0.0 0.0 0.00 0.65 0.00 97 1011.1
20260510020049 50 0 0.0 0.0 0.00 0.65 0.00 97 1011.0
20260510014540 50 0 0.0 0.0 0.00 0.65 0.00 97 1011.0
20260510013038 51 0 0.0 0.0 0.00 0.65 0.00 97 1010.9
20260510011546 51 0 0.0 0.0 0.00 0.65 0.00 97 1011.0
20260510010038 51 0 0.0 0.0 0.00 0.65 0.00 97 1011.1
20260510004542 52 0 0.0 0.0 0.00 0.65 0.00 97 1011.1
20260510003047 53 0 0.0 0.0 0.00 0.65 0.00 97 1011.3
20260510001539 53 0 0.0 0.0 0.00 0.65 0.00 97 1011.5
20260510000040 54 0 0.0 0.0 0.00 0.65 0.00 97 1011.6
20260509234539 54 0 0.0 0.0 0.00 0.65 0.00 97 1011.8
20260509233048 54 0 0.0 0.0 0.00 0.65 0.00 97 1012.1
20260509231542 54 0 0.0 0.0 0.00 0.65 0.00 97 1012.0
20260509230043 54 0 0.0 0.0 0.00 0.65 0.00 97 1012.1
20260509224550 54 0 0.0 0.0 0.00 0.65 0.00 97 1012.0
20260509223048 54 0 0.0 0.0 0.00 0.65 0.00 97 1012.2
20260509221600 54 0 0.0 0.0 0.00 0.65 0.00 97 1012.0
20260509220039 54 0 0.0 0.0 0.00 0.65 0.00 97 1012.0
20260509214548 54 0 0.0 0.0 0.00 0.65 0.65 97 1011.9
20260509213043 54 0 0.0 0.0 0.00 0.65 0.65 97 1012.0
20260509211539 54 0 0.0 0.0 0.00 0.65 0.65 97 1011.8
20260509210049 54 0 0.0 0.0 0.00 0.65 0.65 96 1011.7
20260509204547 54 0 0.0 0.0 0.00 0.65 0.65 96 1011.3
20260509203043 54 0 0.0 0.0 0.00 0.65 0.65 96 1011.2
20260509201556 54 0 0.0 0.0 0.00 0.65 0.65 96 1010.9
20260509200058 54 0 0.0 1.7 0.00 0.65 0.65 96 1011.0